Terug naar catalogus

COSMOS 2251 DEB

ActiefLEO
NORAD 37498·DEBRIS·🇷🇺 Russia

Gelanceerd Jun 16, 1993 vanaf Plesetsk Cosmodrome

Loading…

Volgende Passages (komende 24 uur)

TLE

VerouderendSource: Space-Track

Epoch: Sep 10, 2026, 01:35 UTC

1 37498U 93036BMB 26253.06601117  .00002252  00000-0  51133-3 0  9999
2 37498  74.0366  29.5684 0011416  28.7174 331.4617 14.56579209693039

Volg COSMOS 2251 DEB in realtime met AllMySat

Download on the App Store